Location: McFarlands Corners
(41.4117°N, 81.3382°W)
Time: 10:24:42
(UTC+00:00)

Courier 1B Rocket - Pass Details

Date: 18 February 2026
Orbit: 920 x 1201 km, 28.2° (Epoch: 10 March)

Event Time Altitude Azimuth Distance (km) Brightness Sun altitude
Rises 03:52:40 0° 253° (WSW) 3,619 - -52.2°
Reaches altitude 10° 03:55:49 10° 239° (WSW) 2,710 - -52.6°
Maximum altitude 04:00:45 23° 190° (S) 2,007 - -53.2°
Drops below altitude 10° 04:05:56 10° 141° (SE) 2,855 - -53.9°
Sets 04:09:21 0° 127° (SE) 3,863 - -54.3°
